Time,TemperatureF,DewpointF,PressureIn,WindDirection,WindDirectionDegrees,WindSpeedMPH,WindSpeedGustMPH,Humidity,HourlyPrecipIn,Conditions,Clouds,dailyrainin,SoftwareType,DateUTC
2013-02-09 00:00:00,31.0,31.0,-100.00,North,355,10.0,16.0,98,-99.99,,,-99.99,,2013-02-09 05:00:00,
2013-02-09 00:22:00,31.0,31.0,-100.00,North,355,10.0,16.0,98,-99.99,,,-99.99,,2013-02-09 05:22:00,
2013-02-09 00:32:00,31.0,31.0,-100.00,North,355,10.0,16.0,98,-99.99,,,-99.99,,2013-02-09 05:32:00,
2013-02-09 00:42:00,31.0,31.0,-100.00,North,355,10.0,16.0,98,-99.99,,,-99.99,,2013-02-09 05:42:00,
2013-02-09 00:52:00,31.0,31.0,-100.00,North,355,10.0,16.0,98,-99.99,,,-99.99,,2013-02-09 05:52:00,
2013-02-09 01:00:00,31.0,31.0,-100.00,NW,324,3.0,13.0,98,-99.99,,,-99.99,,2013-02-09 06:00:00,
2013-02-09 01:22:00,31.0,31.0,-100.00,NW,324,3.0,13.0,98,-99.99,,,-99.99,,2013-02-09 06:22:00,
2013-02-09 01:32:00,31.0,31.0,-100.00,NW,324,3.0,13.0,98,-99.99,,,-99.99,,2013-02-09 06:32:00,
2013-02-09 01:42:00,31.0,31.0,-100.00,NW,324,3.0,13.0,98,-99.99,,,-99.99,,2013-02-09 06:42:00,
2013-02-09 01:52:00,31.0,31.0,-100.00,NW,324,3.0,13.0,98,-99.99,,,-99.99,,2013-02-09 06:52:00,
2013-02-09 02:00:00,31.0,31.0,-100.00,NW,321,3.0,13.0,99,-99.99,,,-99.99,,2013-02-09 07:00:00,
2013-02-09 02:32:00,31.0,31.0,-100.00,NW,321,3.0,13.0,99,-99.99,,,-99.99,,2013-02-09 07:32:00,
2013-02-09 02:42:00,31.0,31.0,-100.00,NW,321,3.0,13.0,99,-99.99,,,-99.99,,2013-02-09 07:42:00,
2013-02-09 02:52:00,31.0,31.0,-100.00,NW,321,3.0,13.0,99,-99.99,,,-99.99,,2013-02-09 07:52:00,
2013-02-09 03:00:00,30.0,30.0,-100.00,NW,319,13.0,16.0,99,-99.99,,,-99.99,,2013-02-09 08:00:00,
2013-02-09 03:22:00,30.0,30.0,-100.00,NW,319,13.0,16.0,99,-99.99,,,-99.99,,2013-02-09 08:22:00,
2013-02-09 03:32:00,30.0,30.0,-100.00,NW,319,13.0,16.0,99,-99.99,,,-99.99,,2013-02-09 08:32:00,
2013-02-09 03:42:00,30.0,30.0,-100.00,NW,319,13.0,16.0,99,-99.99,,,-99.99,,2013-02-09 08:42:00,
2013-02-09 03:52:00,30.0,30.0,-100.00,NW,319,13.0,16.0,99,-99.99,,,-99.99,,2013-02-09 08:52:00,
2013-02-09 04:00:00,27.0,27.0,-100.00,North,350,11.0,18.0,97,-99.99,,,-99.99,,2013-02-09 09:00:00,
2013-02-09 04:22:00,27.0,27.0,-100.00,North,350,11.0,18.0,97,-99.99,,,-99.99,,2013-02-09 09:22:00,
2013-02-09 04:32:00,27.0,27.0,-100.00,North,350,11.0,18.0,97,-99.99,,,-99.99,,2013-02-09 09:32:00,
2013-02-09 04:42:00,27.0,27.0,-100.00,North,350,11.0,18.0,97,-99.99,,,-99.99,,2013-02-09 09:42:00,
2013-02-09 04:52:00,27.0,27.0,-100.00,North,350,11.0,18.0,97,-99.99,,,-99.99,,2013-02-09 09:52:00,
2013-02-09 05:00:00,26.0,24.0,-100.00,NNW,347,8.0,21.0,94,-99.99,,,-99.99,,2013-02-09 10:00:00,
2013-02-09 05:32:00,26.0,24.0,-100.00,NNW,347,8.0,21.0,94,-99.99,,,-99.99,,2013-02-09 10:32:00,
2013-02-09 05:42:00,26.0,24.0,-100.00,NNW,347,8.0,21.0,94,-99.99,,,-99.99,,2013-02-09 10:42:00,
2013-02-09 05:52:00,26.0,24.0,-100.00,NNW,347,8.0,21.0,94,-99.99,,,-99.99,,2013-02-09 10:52:00,
2013-02-09 06:00:00,25.0,22.0,-100.00,NNW,341,5.0,22.0,88,-99.99,,,-99.99,,2013-02-09 11:00:00,
2013-02-09 06:22:00,25.0,22.0,-100.00,NNW,341,5.0,22.0,88,-99.99,,,-99.99,,2013-02-09 11:22:00,
2013-02-09 06:32:00,25.0,22.0,-100.00,NNW,341,5.0,22.0,88,-99.99,,,-99.99,,2013-02-09 11:32:00,
2013-02-09 06:42:00,25.0,22.0,-100.00,NNW,341,5.0,22.0,88,-99.99,,,-99.99,,2013-02-09 11:42:00,
2013-02-09 06:52:00,25.0,22.0,-100.00,NNW,341,5.0,22.0,88,-99.99,,,-99.99,,2013-02-09 11:52:00,
2013-02-09 07:00:00,25.0,21.0,-100.00,NNW,330,12.0,23.0,86,-99.99,,,-99.99,,2013-02-09 12:00:00,
2013-02-09 07:22:00,25.0,21.0,-100.00,NNW,330,12.0,23.0,86,-99.99,,,-99.99,,2013-02-09 12:22:00,
2013-02-09 07:32:00,25.0,21.0,-100.00,NNW,330,12.0,23.0,86,-99.99,,,-99.99,,2013-02-09 12:32:00,
2013-02-09 07:42:00,25.0,21.0,-100.00,NNW,330,12.0,23.0,86,-99.99,,,-99.99,,2013-02-09 12:42:00,
2013-02-09 07:53:00,25.0,21.0,-100.00,NNW,330,12.0,23.0,86,-99.99,,,-99.99,,2013-02-09 12:53:00,
2013-02-09 08:00:00,25.0,19.0,-100.00,NNW,346,5.0,23.0,79,-99.99,,,-99.99,,2013-02-09 13:00:00,
2013-02-09 08:22:00,25.0,19.0,-100.00,NNW,346,5.0,23.0,79,-99.99,,,-99.99,,2013-02-09 13:22:00,
2013-02-09 08:32:00,25.0,19.0,-100.00,NNW,346,5.0,23.0,79,-99.99,,,-99.99,,2013-02-09 13:32:00,
2013-02-09 08:42:00,25.0,19.0,-100.00,NNW,346,5.0,23.0,79,-99.99,,,-99.99,,2013-02-09 13:42:00,
2013-02-09 08:52:00,25.0,19.0,-100.00,NNW,346,5.0,23.0,79,-99.99,,,-99.99,,2013-02-09 13:52:00,
2013-02-09 09:00:00,25.0,18.0,-100.00,NW,316,8.0,25.0,72,-99.99,,,-99.99,,2013-02-09 14:00:00,
2013-02-09 09:22:00,25.0,18.0,-100.00,NW,316,8.0,25.0,72,-99.99,,,-99.99,,2013-02-09 14:22:00,
2013-02-09 09:32:00,25.0,18.0,-100.00,NW,316,8.0,25.0,72,-99.99,,,-99.99,,2013-02-09 14:32:00,
2013-02-09 09:42:00,25.0,18.0,-100.00,NW,316,8.0,25.0,72,-99.99,,,-99.99,,2013-02-09 14:42:00,
2013-02-09 09:52:00,25.0,18.0,-100.00,NW,316,8.0,25.0,72,-99.99,,,-99.99,,2013-02-09 14:52:00,
2013-02-09 10:00:00,27.0,17.0,-100.00,NNW,327,13.0,24.0,66,-99.99,,,-99.99,,2013-02-09 15:00:00,
2013-02-09 10:32:00,27.0,17.0,-100.00,NNW,327,13.0,24.0,66,-99.99,,,-99.99,,2013-02-09 15:32:00,
2013-02-09 10:42:00,27.0,17.0,-100.00,NNW,327,13.0,24.0,66,-99.99,,,-99.99,,2013-02-09 15:42:00,
2013-02-09 10:52:00,27.0,17.0,-100.00,NNW,327,13.0,24.0,66,-99.99,,,-99.99,,2013-02-09 15:52:00,
2013-02-09 11:00:00,29.0,19.0,-100.00,North,0,11.0,25.0,65,-99.99,,,-99.99,,2013-02-09 16:00:00,
2013-02-09 11:22:00,29.0,19.0,-100.00,North,0,11.0,25.0,65,-99.99,,,-99.99,,2013-02-09 16:22:00,
2013-02-09 11:32:00,29.0,19.0,-100.00,North,0,11.0,25.0,65,-99.99,,,-99.99,,2013-02-09 16:32:00,
2013-02-09 11:42:00,29.0,19.0,-100.00,North,0,11.0,25.0,65,-99.99,,,-99.99,,2013-02-09 16:42:00,
2013-02-09 11:52:00,29.0,19.0,-100.00,North,0,11.0,25.0,65,-99.99,,,-99.99,,2013-02-09 16:52:00,
2013-02-09 12:00:00,31.0,19.0,-100.00,NW,307,12.0,23.0,60,-99.99,,,-99.99,,2013-02-09 17:00:00,
2013-02-09 12:22:00,31.0,19.0,-100.00,NW,307,12.0,23.0,60,-99.99,,,-99.99,,2013-02-09 17:22:00,
2013-02-09 12:32:00,31.0,19.0,-100.00,NW,307,12.0,23.0,60,-99.99,,,-99.99,,2013-02-09 17:32:00,
2013-02-09 12:42:00,31.0,19.0,-100.00,NW,307,12.0,23.0,60,-99.99,,,-99.99,,2013-02-09 17:42:00,
2013-02-09 12:52:00,31.0,19.0,-100.00,NW,307,12.0,23.0,60,-99.99,,,-99.99,,2013-02-09 17:52:00,
2013-02-09 13:00:00,31.0,18.0,-100.00,NW,306,16.0,31.0,56,-99.99,,,-99.99,,2013-02-09 18:00:00,
2013-02-09 13:23:00,31.0,18.0,-100.00,NW,306,16.0,31.0,56,-99.99,,,-99.99,,2013-02-09 18:23:00,
2013-02-09 13:32:00,31.0,18.0,-100.00,NW,306,16.0,31.0,56,-99.99,,,-99.99,,2013-02-09 18:32:00,
2013-02-09 13:42:00,31.0,18.0,-100.00,NW,306,16.0,31.0,56,-99.99,,,-99.99,,2013-02-09 18:42:00,
2013-02-09 13:52:00,31.0,18.0,-100.00,NW,306,16.0,31.0,56,-99.99,,,-99.99,,2013-02-09 18:52:00,
2013-02-09 14:00:00,33.0,18.0,-100.00,NNW,330,16.0,27.0,53,-99.99,,,-99.99,,2013-02-09 19:00:00,
2013-02-09 14:22:00,33.0,18.0,-100.00,NNW,330,16.0,27.0,53,-99.99,,,-99.99,,2013-02-09 19:22:00,
2013-02-09 14:32:00,33.0,18.0,-100.00,NNW,330,16.0,27.0,53,-99.99,,,-99.99,,2013-02-09 19:32:00,
2013-02-09 14:42:00,33.0,18.0,-100.00,NNW,330,16.0,27.0,53,-99.99,,,-99.99,,2013-02-09 19:42:00,
2013-02-09 14:52:00,33.0,18.0,-100.00,NNW,330,16.0,27.0,53,-99.99,,,-99.99,,2013-02-09 19:52:00,
2013-02-09 15:00:00,34.0,17.0,-100.00,NW,322,16.0,25.0,51,-99.99,,,-99.99,,2013-02-09 20:00:00,
2013-02-09 15:22:00,34.0,17.0,-100.00,NW,322,16.0,25.0,51,-99.99,,,-99.99,,2013-02-09 20:22:00,
2013-02-09 15:32:00,34.0,17.0,-100.00,NW,322,16.0,25.0,51,-99.99,,,-99.99,,2013-02-09 20:32:00,
2013-02-09 15:42:00,34.0,17.0,-100.00,NW,322,16.0,25.0,51,-99.99,,,-99.99,,2013-02-09 20:42:00,
2013-02-09 15:52:00,34.0,17.0,-100.00,NW,322,16.0,25.0,51,-99.99,,,-99.99,,2013-02-09 20:52:00,
2013-02-09 16:00:00,34.0,17.0,-100.00,North,352,11.0,25.0,48,-99.99,,,-99.99,,2013-02-09 21:00:00,
2013-02-09 16:22:00,34.0,17.0,-100.00,North,352,11.0,25.0,48,-99.99,,,-99.99,,2013-02-09 21:22:00,
2013-02-09 16:32:00,34.0,17.0,-100.00,North,352,11.0,25.0,48,-99.99,,,-99.99,,2013-02-09 21:32:00,
2013-02-09 16:42:00,34.0,17.0,-100.00,North,352,11.0,25.0,48,-99.99,,,-99.99,,2013-02-09 21:42:00,
2013-02-09 16:52:00,34.0,17.0,-100.00,North,352,11.0,25.0,48,-99.99,,,-99.99,,2013-02-09 21:52:00,
2013-02-09 17:00:00,33.0,15.0,-100.00,NW,308,13.0,23.0,47,-99.99,,,-99.99,,2013-02-09 22:00:00,
2013-02-09 17:22:00,33.0,15.0,-100.00,NW,308,13.0,23.0,47,-99.99,,,-99.99,,2013-02-09 22:22:00,
2013-02-09 17:32:00,33.0,15.0,-100.00,NW,308,13.0,23.0,47,-99.99,,,-99.99,,2013-02-09 22:32:00,
2013-02-09 17:42:00,33.0,15.0,-100.00,NW,308,13.0,23.0,47,-99.99,,,-99.99,,2013-02-09 22:42:00,
2013-02-09 17:52:00,33.0,15.0,-100.00,NW,308,13.0,23.0,47,-99.99,,,-99.99,,2013-02-09 22:52:00,
2013-02-09 18:00:00,31.0,13.0,-100.00,North,0,12.0,18.0,46,-99.99,,,-99.99,,2013-02-09 23:00:00,
2013-02-09 18:22:00,31.0,13.0,-100.00,North,0,12.0,18.0,46,-99.99,,,-99.99,,2013-02-09 23:22:00,
2013-02-09 18:32:00,31.0,13.0,-100.00,North,0,12.0,18.0,46,-99.99,,,-99.99,,2013-02-09 23:32:00,
2013-02-09 18:42:00,31.0,13.0,-100.00,North,0,12.0,18.0,46,-99.99,,,-99.99,,2013-02-09 23:42:00,
2013-02-09 18:52:00,31.0,13.0,-100.00,North,0,12.0,18.0,46,-99.99,,,-99.99,,2013-02-09 23:52:00,
2013-02-09 19:00:00,30.0,12.0,-100.00,North,351,4.0,20.0,47,-99.99,,,-99.99,,2013-02-10 00:00:00,
2013-02-09 19:32:00,30.0,12.0,-100.00,North,351,4.0,20.0,47,-99.99,,,-99.99,,2013-02-10 00:32:00,
2013-02-09 19:42:00,30.0,12.0,-100.00,North,351,4.0,20.0,47,-99.99,,,-99.99,,2013-02-10 00:42:00,
2013-02-09 19:52:00,30.0,12.0,-100.00,North,351,4.0,20.0,47,-99.99,,,-99.99,,2013-02-10 00:52:00,
2013-02-09 20:00:00,29.0,13.0,-100.00,NW,313,6.0,14.0,50,-99.99,,,-99.99,,2013-02-10 01:00:00,
2013-02-09 20:22:00,29.0,13.0,-100.00,NW,313,6.0,14.0,50,-99.99,,,-99.99,,2013-02-10 01:22:00,
2013-02-09 20:32:00,29.0,13.0,-100.00,NW,313,6.0,14.0,50,-99.99,,,-99.99,,2013-02-10 01:32:00,
2013-02-09 20:42:00,29.0,13.0,-100.00,NW,313,6.0,14.0,50,-99.99,,,-99.99,,2013-02-10 01:42:00,
2013-02-09 20:52:00,29.0,13.0,-100.00,NW,313,6.0,14.0,50,-99.99,,,-99.99,,2013-02-10 01:52:00,
2013-02-09 21:00:00,28.0,12.0,-100.00,NNW,332,6.0,18.0,49,-99.99,,,-99.99,,2013-02-10 02:00:00,
2013-02-09 21:22:00,28.0,12.0,-100.00,NNW,332,6.0,18.0,49,-99.99,,,-99.99,,2013-02-10 02:22:00,
2013-02-09 21:32:00,28.0,12.0,-100.00,NNW,332,6.0,18.0,49,-99.99,,,-99.99,,2013-02-10 02:32:00,
2013-02-09 21:42:00,28.0,12.0,-100.00,NNW,332,6.0,18.0,49,-99.99,,,-99.99,,2013-02-10 02:42:00,
2013-02-09 21:52:00,28.0,12.0,-100.00,NNW,332,6.0,18.0,49,-99.99,,,-99.99,,2013-02-10 02:52:00,
2013-02-09 22:00:00,27.0,8.0,-100.00,NNW,330,9.0,18.0,44,-99.99,,,-99.99,,2013-02-10 03:00:00,
2013-02-09 22:22:00,27.0,8.0,-100.00,NNW,330,9.0,18.0,44,-99.99,,,-99.99,,2013-02-10 03:22:00,
2013-02-09 22:32:00,27.0,8.0,-100.00,NNW,330,9.0,18.0,44,-99.99,,,-99.99,,2013-02-10 03:32:00,
2013-02-09 22:42:00,27.0,8.0,-100.00,NNW,330,9.0,18.0,44,-99.99,,,-99.99,,2013-02-10 03:42:00,
2013-02-09 22:52:00,27.0,8.0,-100.00,NNW,330,9.0,18.0,44,-99.99,,,-99.99,,2013-02-10 03:52:00,
2013-02-09 23:00:00,26.0,7.0,-100.00,North,353,11.0,16.0,45,-99.99,,,-99.99,,2013-02-10 04:00:00,
2013-02-09 23:22:00,26.0,7.0,-100.00,North,353,11.0,16.0,45,-99.99,,,-99.99,,2013-02-10 04:22:00,
2013-02-09 23:32:00,26.0,7.0,-100.00,North,353,11.0,16.0,45,-99.99,,,-99.99,,2013-02-10 04:32:00,
2013-02-09 23:42:00,26.0,7.0,-100.00,North,353,11.0,16.0,45,-99.99,,,-99.99,,2013-02-10 04:42:00,
2013-02-09 23:52:00,26.0,7.0,-100.00,North,353,11.0,16.0,45,-99.99,,,-99.99,,2013-02-10 04:52:00,